Regional Weather Roundup
Issued by NWS

Home | Current Version | Previous Version | Text Only | Print | Product List | Glossary On
Versions: 1 2 3 4 5 6 7 8 9 10 11 12 13 14 15 16 17 18 19 20 21 22 23 24 25 26 27 28 29 30 31 32 33 34 35 36 37 38 39 40 41 42 43 44 45 46 47 48 49 50
135
ASUS44 KBMX 102110
RWRAL

ALABAMA REGIONAL WEATHER ROUNDUP
NATIONAL WEATHER SERVICE BIRMINGHAM AL
300 PM CST SAT DEC 10 2016

NOTE: "FAIR" INDICATES FEW OR NO CLOUDS BELOW 12,000 FEET
WITH NO SIGNIFICANT WEATHER AND/OR OBSTRUCTIONS TO VISIBILITY.

THE REMARK "TC" DENOTES TEMPERATURE IN DEGREES CELSIUS.

ALZ001>011-014-016>018-020-102200-
NORTH ALABAMA

CITY           SKY/WX    TMP DP  RH WIND       PRES   REMARKS
MUSCLE SHOALS  SUNNY     44  16  32 CALM      30.46F
HUNTSVILLE     MOSUNNY   46  15  28 VRB5      30.44F
DECATUR        SUNNY     45  16  31 NE6       30.46F
HALEYVILLE     FAIR      45  17  32 NE7       30.44F
GADSDEN        SUNNY     46  16  30 CALM      30.45S
$$

ALZ012-013-022-023-030>036-040>044-102200-
WEST CENTRAL ALABAMA

CITY           SKY/WX    TMP DP  RH WIND       PRES   REMARKS
TUSCALOOSA     SUNNY     51  13  21 NE6       30.44F
$$

ALZ015-024>027-033>036-040>044-102200-
CENTRAL ALABAMA

CITY           SKY/WX    TMP DP  RH WIND       PRES   REMARKS
BIRMINGHAM     SUNNY     50  12  21 N3        30.45S
MONTGOMERY     SUNNY     54   8  16 CALM      30.43F
SHELBY CO ARPT SUNNY     51   9  18 VRB3      30.43S
MAXWELL AFB    SUNNY     52  10  18 N3        30.42S
GREENVILLE     FAIR      54   8  16 E5        30.40S
$$

ALZ019-021-028-029-037-038-045>048-102200-
EAST CENTRAL ALABAMA

CITY           SKY/WX    TMP DP  RH WIND       PRES   REMARKS
ANNISTON       SUNNY     50   8  18 VRB5      30.43S
ALEXANDER CITY SUNNY     55   9  16 CALM      30.42R
AUBURN         SUNNY     50  13  22 NE6       30.41F
$$

ALZ051>064-102200-
SOUTHWEST ALABAMA

CITY           SKY/WX    TMP DP  RH WIND       PRES   REMARKS
MOBILE         MOSUNNY   53  13  20 NE6       30.40F
BROOKLEY FIELD SUNNY     55  21  26 N8        30.41F
EVERGREEN      SUNNY     53  12  19 NE7       30.41F
$$

ALZ049-050-065>069-102200-
SOUTHEAST ALABAMA

CITY           SKY/WX    TMP DP  RH WIND       PRES   REMARKS
DOTHAN         SUNNY     54  19  25 NE5       30.43S
OZARK          SUNNY     54  13  20 VRB2      30.39S
TROY           SUNNY     53  12  19 NE5       30.41F
EUFAULA        FAIR      54  18  24 N3        30.40S
$$




USA.gov is the U.S. government's official web portal to all federal, state and local government web resources and services.